Regional Weather Roundup
Issued by NWS Wakefield, VA

Home | Current Version | Previous Version | Text Only | Print | Product List | Glossary Off
Versions: 1 2 3 4 5 6 7 8 9 10 11 12 13 14 15 16 17 18 19 20 21 22 23 24 25 26 27

000
ASUS41 KAKQ 282315
RWRAKQ

REGIONAL WEATHER ROUNDUP
NATIONAL WEATHER SERVICE WAKEFIELD VA
700 PM EDT FRI APR 28 2017

Note: "fair" indicates few or no clouds below 12,000 feet with no
significant weather and/or obstructions to visibility. * = Denotes
station may not report precipitation (e.g., rain,snow,etc.),
thunder or fog.

VAZ042-051-052>054-056-290000-
NORTHERN VIRGINIA

CITY           SKY/WX    TMP DP  RH WIND       PRES   REMARKS
WASH NATIONAL  PTSUNNY   80  65  59 S9        30.00F
DULLES         PTSUNNY   80  60  50 SE7       30.00S
FORT BELVOIR   MOSUNNY   80  63  55 SE6       30.00S
QUANTICO       MOSUNNY   77  64  64 SE12      30.01S
FREDERICKSBRG* MOSUNNY   83  64  51 S5        29.99S
STAFFORD*      PTSUNNY   81  60  48 S5        30.04R
WARRENTON      MOSUNNY   83  56  40 S6        30.00S
CULPEPER*      MOSUNNY   83  62  49 S6        30.01R
MANASSAS*        N/A     80  64  58 SE10      30.00S
LEESBURG*      CLOUDY    84  61  45 S9        30.00S
WINCHESTER     MOSUNNY   77  59  53 SE10      29.98S
FRONT ROYAL*   CLEAR     79  57  47 S8        29.97S
LURAY*         PTCLDY    79  55  44 S7        29.99S
$$

VAZ048-049-060>072-079>083-290000-
CENTRAL AND SOUTH CENTRAL VIRGINIA

CITY           SKY/WX    TMP DP  RH WIND       PRES   REMARKS
RICHMOND       MOSUNNY   83  67  58 S7        30.00F
CHESTERFIELD*  FAIR     N/A N/A N/A SW5       30.02S
PETERSBURG*    SUNNY     82  66  56 S5        30.02S
HANOVER        SUNNY     83  61  47 S7        30.02F
TAPPAHANNOCK*  CLEAR     85  53  33 S6        30.02S
QUINTON*       FAIR      85  66  53 SE5       30.01S
CHARLOTTSVILLE MOSUNNY   83  60  45 S15       30.00S
GORDONSVILLE*  CLEAR     82  63  51 S6        30.00S
ORANGE*        MOSUNNY   81  61  50 CALM      30.00S
LOUISA*          N/A    N/A N/A N/A MISG      30.01R
BUMPASS*       FAIR      81  64  54 S5        30.01S
FARMVILLE*     SUNNY     83  66  55 S7        30.01S
CREWE*         FAIR      82  69  65 S3        30.02R
FORT PICKETT*  NOT AVBL
CHASE CITY*    FAIR      83  66  57 S3        30.03S
CLARKSVILLE*   FAIR      81  70  69 S8        30.03S
SOUTH HILL*    SUNNY     82  71  71 S5        30.08F
LAWRENCEVILLE* FAIR      82  69  63 S6        30.03S
EMPORIA*       SUNNY     82  68  61 S3        30.04S
$$

VAZ088>098-290000-
SOUTHEAST VIRGINIA

CITY           SKY/WX    TMP DP  RH WIND       PRES   REMARKS
NORFOLK        PTCLDY    85  69  58 SW10      30.03R
VIRGINIA BEACH PTCLDY    83  68  60 SW7       30.03R
NORFOLK NAVAL  PTCLDY    84  67  56 SW8       30.04S
WEST POINT*    CLEAR     83  65  54 S3        30.03S
SALUDA*        FAIR      81  72  74 S6        30.03R
NEWPORT NEWS   CLEAR     83  68  60 SW8       30.03R
LANGLEY AFB    CLEAR     81  72  72 SE5       30.03S
FORT EUSTIS    CLEAR     86  70  58 S3        30.01R
WILLIAMSBURG*  CLEAR     86  70  58 CALM      30.03S
HR EXEC AP*    FAIR      84  70  61 SW6       30.01R
FRANKLIN*      CLEAR     83  68  60 S8        30.04S
US460-WAKEFLD  CLEAR     84  68  58 S3        30.02F
$$

VAZ020-022-025-037-045-290000-
WEST CENTRAL AND SOUTHWEST VIRGINIA

CITY           SKY/WX    TMP DP  RH WIND       PRES   REMARKS
STAUNTON*      MOSUNNY   77  60  54 S7        30.03F
WAYNESBORO*    PTCLDY    78  62  57 S12       30.03F
HOT SPRINGS VA MOSUNNY   68  50  52 S10G16    30.14F
LYNCHBURG      SUNNY     80  62  54 SW8       30.04S
DANVILLE       SUNNY     81  67  62 SW8       30.03S
SOUTH BOSTON*  FAIR      82  65  57 S5        30.03S
MARTINSVILLE   SUNNY     80  64  58 S5        30.06R
ROANOKE        MOSUNNY   80  60  50 S8        30.04S
BLACKSBURG     SUNNY     77  58  51 S8        30.09S
DUBLIN*        SUNNY     78  54  42 S10       30.07S
MARION*        SUNNY     77  60  54 CALM      30.07S
HILLSVILLE*    SUNNY     73  63  70 CALM      30.09S
RICHLANDS*     CLOUDY    80  56  43 S3        30.03S
WISE*          PTSUNNY   79  52  38 S6        30.04S
ABINGDON*      MOSUNNY   82  55  38 CALM      30.00S
$$

MDZ021>025-VAZ099-100-290000-
SOUTHERN MARYLAND AND THE DELMARVA PENINSULA

CITY           SKY/WX    TMP DP  RH WIND       PRES   REMARKS
PATUXENT RIVER MOCLDY    73  69  87 SE8       30.03R
BAY BRIDGE APT CLEAR     79  61  53 SE7       30.02S
LEONARDTOWN    CLOUDY    75  61  60 E3        30.04S
DOVER          CLEAR     77  73  87 SE6       30.02S
GEORGETOWN     CLEAR     81  64  56 S9        30.04R
EASTON         PTCLDY    82  59  44 SW5       30.07S
CAMBRIDGE      CLEAR     79  61  53 S7        30.03S
SALISBURY      CLEAR     79  65  62 S6        30.04R
OCEAN CITY     CLEAR     69  65  86 S7        30.06R
WALLOPS ISLAND CLEAR     71  67  87 S6        30.06R
ACCOMACK*      CLEAR     77  70  80 SE9       30.05R
$$

NCZ012>017-030>032-290000-
NORTH CENTRAL AND EASTERN NORTH CAROLINA

CITY           SKY/WX    TMP DP  RH WIND       PRES   REMARKS
ROANOKE RAPIDS FAIR      82  70  65 S5        30.03S
RALEIGH        MOSUNNY   85  65  51 S9        30.04S
ELIZABETH CITY CLEAR     83  75  77 S12       30.06R
AHOSKIE*         N/A     83  69  62 CALM      30.04S
EDENTON*       PTCLDY    84  74  72 S13       30.06S
CURRITUCK*     CLEAR     84  72  68 S5        30.06R
KILL DEVIL HLS CLEAR     78  71  79 S5        30.07R
MANTEO         CLEAR     78  72  83 SW17      30.08S
CAPE HATTERAS  CLEAR     77  72  84 SW14G21   30.12S HAZE
TARBORO*       NOT AVBL
GOLDSBORO      SUNNY     86  73  66 S8        30.04R
WASHINGTON     CLEAR     83  73  72 S9        30.06S
GREENVILLE     CLEAR     86  70  58 S12       30.07S
NEW BERN       CLEAR     81  74  79 S14       30.09S
WILMINGTON     MOCLDY    80  74  81 SW16G24   30.10S
$$

VAZ048-290000-
ELSEWHERE

CITY           SKY/WX    TMP DP  RH WIND       PRES   REMARKS
HARRISBURG PA  PTSUNNY   79  51  37 CALM      30.00R
BALTIMORE      MOCLDY    79  59  50 SE7       30.01S
ANNAPOLIS      CLEAR     76  62  62 S7        30.01F
ANDREWS AFB    PTCLDY    80  62  55 S8        30.01S
PHILADELPHIA   PTCLDY    81  53  37 S12       30.01R
HENDERSON NC   SUNNY     80  64  58 S7        30.04S
GREENSBORO     MOSUNNY   81  66  60 SW12      30.05S
ROCKY MOUNT    SUNNY     85  69  58 S8        30.04S
$$

VAZ100-290000-
MARINE

STATION/POSITION TIME  TEMP    WIND        PRES    WAVE   SWELL
                       AIR SEA DIR/SP/G            HT/PER HT/PER
                 (UTC) (F)     (DEG/KT/KT) (MB)    (FT/S) (FT/S)
CAPE MAY NJ      2248   69 61  160/  9/ 13 1017.2R
LEWES DE         2248          160/  6/  7 1017.1R
15NM E FENWICK I 2250   58 56  130/  6/  8 1018.5R   4/ 8   3/ 8
OCEAN-CITY-INLET 2248          210/ 11/ 12 1018.3R
WACHAPREAGUE VA  2242   72 73  170/  6/  8 1017.1R
THOMAS POINT MD  2300   68 59  180/ 10/ 10   N/A
GOOSES REEF MD   2300   68 59  210/ 10/ 12 1017.2
COVE POINT MD    2242   68     180/  7/  7 1017.6R
SOLOMONS ISLAND  2248           90/  6/  7   N/A
BISHOPS HEAD MD  2242   71 70  150/  5/  6 1017.6R
PINEY POINT MD   2248          120/ 10/ 11   N/A
POTOMAC MD       2300   69 66   90/  6/  6 1016.0    0
CAMBRIDGE MD     2242   80 67                N/A
LEWISETTA VA     2248          100/  6/  7 1016.4R
RAPPAHANNOCK LGT 2248          120/ 13/ 13 1017.7R
STINGRAY PT      2300   68 63  200/  6/  8 1017.0    1
YORK RVR RNG VA  2242   69     150/ 11/ 11 1016.2S
YORKTOWN VA      2242   74 68   20/  3/  4 1016.4R
JAMESTOWN VA     2300   83 71  190/  6/  8   N/A     0
DOMINION TERM VA 2242   81     230/  2/  4 1017.1R
KIPTOPEKE VA     2248      67  150/  6/  7   N/A
CHES BAY BRIDGE  2242   74 64  140/  7/ 11 1016.8R
CAPE HENRY VA    2242   72     130/  4/  6   N/A
WILLOUBY STN VA  2242   76     110/  5/  5 1018.0S
S CRANEY ISL VA  2242   85     210/  7/ 12 1016.7R
CAPE HENRY BUOY  2242      67                N/A     3/ 6
1ST LANDING BUOY 2300   67 62              1017.1    1/ 5
CAPE CHARLES BUO 2251      65                N/A     3/ 8
64NM E OF VA BCH 2250   63 58  190/ 12/ 14 1019.0R   4/ 6   3/ 6
DUCK PIER NC     2242   80 58  190/ 12/ 16 1017.4R
44100 DUCK FRF   2205      63                N/A     4/ 8
44056 DUCK FRF   2230      62                N/A     3/ 8
OREGON INLET NC  2248          190/ 18/ 20 1018.9R
HATTERAS NC      2242   76 72  190/  7/ 12 1019.7R
DIAMOND SHLS NC  2250   78 76  210/ 16/ 17 1020.2R   4/ 8   3/ 8
CAPE LOOKOUT NC  2300   75     200/ 10/ 12 1019.9R
$$




USA.gov is the U.S. government's official web portal to all federal, state and local government web resources and services.